Time,TemperatureF,DewpointF,PressureIn,WindDirection,WindDirectionDegrees,WindSpeedMPH,WindSpeedGustMPH,Humidity,HourlyPrecipIn,Conditions,Clouds,dailyrainin,SoftwareType,DateUTC
2013-05-21 00:01:00,67.2,65.4,29.90,SW,232,0.0,9.0,94,0.00,,,0.00,Wunderground v.1.15,2013-05-21 04:01:00,
2013-05-21 00:05:00,67.2,65.7,29.90,SW,232,0.0,9.0,95,0.00,,,0.00,Wunderground v.1.15,2013-05-21 04:05:00,
2013-05-21 00:11:00,67.0,65.5,29.90,SW,232,0.0,9.0,95,0.00,,,0.00,Wunderground v.1.15,2013-05-21 04:11:00,
2013-05-21 00:21:00,66.8,65.3,29.89,SW,232,0.0,9.0,95,0.00,,,0.00,Wunderground v.1.15,2013-05-21 04:21:00,
2013-05-21 00:30:00,66.5,65.0,29.89,SW,232,0.0,9.0,95,0.00,,,0.00,Wunderground v.1.15,2013-05-21 04:30:00,
2013-05-21 00:36:00,66.4,64.9,29.89,SW,232,0.0,9.0,95,0.00,,,0.00,Wunderground v.1.15,2013-05-21 04:36:00,
2013-05-21 00:46:00,66.3,64.8,29.89,SW,232,0.0,9.0,95,0.00,,,0.00,Wunderground v.1.15,2013-05-21 04:46:00,
2013-05-21 00:56:00,66.0,64.5,29.89,SW,232,0.0,9.0,95,0.00,,,0.00,Wunderground v.1.15,2013-05-21 04:56:00,
2013-05-21 01:06:00,65.7,64.2,29.89,SW,232,0.0,9.0,95,0.00,,,0.00,Wunderground v.1.15,2013-05-21 05:06:00,
2013-05-21 01:16:00,65.5,64.0,29.89,SW,232,0.0,9.0,95,0.00,,,0.00,Wunderground v.1.15,2013-05-21 05:16:00,
2013-05-21 01:26:00,65.2,63.7,29.89,SW,232,0.0,9.0,95,0.00,,,0.00,Wunderground v.1.15,2013-05-21 05:26:00,
2013-05-21 01:36:00,64.9,63.4,29.89,SW,232,0.0,9.0,95,0.00,,,0.00,Wunderground v.1.15,2013-05-21 05:36:00,
2013-05-21 01:46:00,64.8,63.3,29.88,SW,232,0.0,9.0,95,0.00,,,0.00,Wunderground v.1.15,2013-05-21 05:46:00,
2013-05-21 01:55:00,64.7,63.2,29.89,SW,232,0.0,9.0,95,0.00,,,0.00,Wunderground v.1.15,2013-05-21 05:55:00,
2013-05-21 02:01:00,64.5,63.0,29.89,SW,232,0.0,9.0,95,0.00,,,0.00,Wunderground v.1.15,2013-05-21 06:01:00,
2013-05-21 02:11:00,64.3,63.1,29.88,SW,232,0.0,9.0,96,0.00,,,0.00,Wunderground v.1.15,2013-05-21 06:11:00,
2013-05-21 02:21:00,64.3,63.1,29.89,SW,232,0.0,9.0,96,0.00,,,0.00,Wunderground v.1.15,2013-05-21 06:21:00,
2013-05-21 02:31:00,64.3,63.1,29.89,SW,232,0.0,9.0,96,0.00,,,0.00,Wunderground v.1.15,2013-05-21 06:31:00,
2013-05-21 02:41:00,64.2,63.0,29.88,SW,232,0.0,9.0,96,0.00,,,0.00,Wunderground v.1.15,2013-05-21 06:41:00,
2013-05-21 02:51:00,63.9,62.7,29.88,SW,232,0.0,9.0,96,0.00,,,0.00,Wunderground v.1.15,2013-05-21 06:51:00,
2013-05-21 03:01:00,63.7,62.5,29.87,SW,232,0.0,9.0,96,0.00,,,0.00,Wunderground v.1.15,2013-05-21 07:01:00,
2013-05-21 03:11:00,63.5,62.3,29.88,SW,232,0.0,9.0,96,0.00,,,0.00,Wunderground v.1.15,2013-05-21 07:11:00,
2013-05-21 03:21:00,63.3,62.1,29.88,SW,232,0.0,9.0,96,0.00,,,0.00,Wunderground v.1.15,2013-05-21 07:21:00,
2013-05-21 03:26:00,63.2,62.0,29.88,SW,232,0.0,9.0,96,0.00,,,0.00,Wunderground v.1.15,2013-05-21 07:26:00,
2013-05-21 03:36:00,63.1,61.9,29.88,SW,232,0.0,9.0,96,0.00,,,0.00,Wunderground v.1.15,2013-05-21 07:36:00,
2013-05-21 03:46:00,63.4,62.2,29.88,SW,232,0.0,9.0,96,0.00,,,0.00,Wunderground v.1.15,2013-05-21 07:46:00,
2013-05-21 03:56:00,63.3,62.1,29.88,SW,232,0.0,9.0,96,0.00,,,0.00,Wunderground v.1.15,2013-05-21 07:56:00,
2013-05-21 04:06:00,63.1,61.9,29.88,SW,232,0.0,9.0,96,0.00,,,0.00,Wunderground v.1.15,2013-05-21 08:06:00,
2013-05-21 04:16:00,63.0,61.8,29.88,SW,232,0.0,9.0,96,0.00,,,0.00,Wunderground v.1.15,2013-05-21 08:16:00,
2013-05-21 04:26:00,63.0,61.8,29.88,SW,232,0.0,9.0,96,0.00,,,0.00,Wunderground v.1.15,2013-05-21 08:26:00,
2013-05-21 04:31:00,63.0,61.8,29.88,SW,232,0.0,9.0,96,0.00,,,0.00,Wunderground v.1.15,2013-05-21 08:31:00,
2013-05-21 04:41:00,63.1,61.9,29.88,SW,232,0.0,9.0,96,0.00,,,0.00,Wunderground v.1.15,2013-05-21 08:41:00,
2013-05-21 04:51:00,63.1,62.2,29.88,SW,232,0.0,9.0,97,0.00,,,0.00,Wunderground v.1.15,2013-05-21 08:51:00,
2013-05-21 05:01:00,63.1,61.9,29.88,SW,232,0.0,9.0,96,0.00,,,0.00,Wunderground v.1.15,2013-05-21 09:01:00,
2013-05-21 05:11:00,63.0,61.8,29.88,SW,232,0.0,9.0,96,0.00,,,0.00,Wunderground v.1.15,2013-05-21 09:11:00,
2013-05-21 05:21:00,63.1,62.2,29.89,SW,232,0.0,9.0,97,0.00,,,0.00,Wunderground v.1.15,2013-05-21 09:21:00,
2013-05-21 05:30:00,63.3,62.4,29.89,SW,232,0.0,9.0,97,0.00,,,0.00,Wunderground v.1.15,2013-05-21 09:30:00,
2013-05-21 05:36:00,63.3,62.4,29.89,SW,232,0.0,9.0,97,0.00,,,0.00,Wunderground v.1.15,2013-05-21 09:36:00,
2013-05-21 05:46:00,63.2,62.3,29.89,SW,232,0.0,9.0,97,0.00,,,0.00,Wunderground v.1.15,2013-05-21 09:46:00,
2013-05-21 05:56:00,63.2,62.3,29.88,SW,232,0.0,9.0,97,0.00,,,0.00,Wunderground v.1.15,2013-05-21 09:56:00,
2013-05-21 06:01:00,63.2,62.3,29.89,SW,232,0.0,9.0,97,0.00,,,0.00,Wunderground v.1.15,2013-05-21 10:01:00,
2013-05-21 06:06:00,63.2,62.3,29.89,SW,232,0.0,9.0,97,0.00,,,0.00,Wunderground v.1.15,2013-05-21 10:06:00,
2013-05-21 06:16:00,63.3,62.4,29.89,SW,232,0.0,9.0,97,0.00,,,0.00,Wunderground v.1.15,2013-05-21 10:16:00,
2013-05-21 06:26:00,63.4,62.5,29.90,SW,232,0.0,9.0,97,0.00,,,0.00,Wunderground v.1.15,2013-05-21 10:26:00,
2013-05-21 06:36:00,63.5,62.6,29.90,SW,232,0.0,9.0,97,0.00,,,0.00,Wunderground v.1.15,2013-05-21 10:36:00,
2013-05-21 06:46:00,63.6,62.7,29.90,SW,232,0.0,9.0,97,0.00,,,0.00,Wunderground v.1.15,2013-05-21 10:46:00,
2013-05-21 06:51:00,63.7,62.8,29.91,SW,232,0.0,9.0,97,0.00,,,0.00,Wunderground v.1.15,2013-05-21 10:51:00,
2013-05-21 07:01:00,63.8,62.9,29.91,SW,232,0.0,9.0,97,0.00,,,0.00,Wunderground v.1.15,2013-05-21 11:01:00,
2013-05-21 07:10:00,63.9,63.0,29.90,SW,232,0.0,9.0,97,0.00,,,0.00,Wunderground v.1.15,2013-05-21 11:10:00,
2013-05-21 07:16:00,63.9,63.0,29.90,SW,232,0.0,9.0,97,0.00,,,0.00,Wunderground v.1.15,2013-05-21 11:16:00,
2013-05-21 07:26:00,64.0,63.1,29.91,SW,232,0.0,9.0,97,0.00,,,0.00,Wunderground v.1.15,2013-05-21 11:26:00,
2013-05-21 07:36:00,64.3,63.4,29.92,SW,232,0.0,9.0,97,0.00,,,0.00,Wunderground v.1.15,2013-05-21 11:36:00,
2013-05-21 07:46:00,64.6,64.0,29.92,SW,232,0.0,9.0,98,0.00,,,0.00,Wunderground v.1.15,2013-05-21 11:46:00,
2013-05-21 07:56:00,64.8,64.2,29.92,SW,232,0.0,9.0,98,0.00,,,0.00,Wunderground v.1.15,2013-05-21 11:56:00,
2013-05-21 08:01:00,64.8,64.2,29.92,SW,232,0.0,0.0,98,0.00,,,0.00,Wunderground v.1.15,2013-05-21 12:01:00,
2013-05-21 08:11:00,65.0,64.1,29.91,SW,232,0.0,0.0,97,0.00,,,0.00,Wunderground v.1.15,2013-05-21 12:11:00,
2013-05-21 08:21:00,65.2,64.3,29.91,SW,232,0.0,0.0,97,0.00,,,0.00,Wunderground v.1.15,2013-05-21 12:21:00,
2013-05-21 08:26:00,65.4,64.8,29.91,SSE,161,0.0,0.0,98,0.00,,,0.00,Wunderground v.1.15,2013-05-21 12:26:00,
2013-05-21 08:36:00,65.7,65.1,29.92,SSE,162,0.0,0.0,98,0.00,,,0.00,Wunderground v.1.15,2013-05-21 12:36:00,
2013-05-21 08:46:00,66.1,65.5,29.92,SSE,162,0.0,0.0,98,0.00,,,0.00,Wunderground v.1.15,2013-05-21 12:46:00,
2013-05-21 08:51:00,66.2,65.6,29.92,SSE,162,0.0,0.0,98,0.00,,,0.00,Wunderground v.1.15,2013-05-21 12:51:00,
2013-05-21 09:01:00,66.5,65.9,29.92,SSE,160,0.0,0.0,98,0.00,,,0.00,Wunderground v.1.15,2013-05-21 13:01:00,
2013-05-21 09:11:00,66.9,66.3,29.93,NE,51,0.0,0.0,98,0.00,,,0.00,Wunderground v.1.15,2013-05-21 13:11:00,
2013-05-21 09:21:00,67.0,66.4,29.94,NE,49,0.0,0.0,98,0.00,,,0.00,Wunderground v.1.15,2013-05-21 13:21:00,
2013-05-21 09:31:00,67.2,66.6,29.94,NNE,33,0.0,0.0,98,0.00,,,0.00,Wunderground v.1.15,2013-05-21 13:31:00,
2013-05-21 09:41:00,67.2,66.6,29.93,ENE,71,0.0,0.0,98,0.00,,,0.00,Wunderground v.1.15,2013-05-21 13:41:00,
2013-05-21 09:51:00,67.7,67.1,29.93,ENE,71,0.0,0.0,98,0.00,,,0.00,Wunderground v.1.15,2013-05-21 13:51:00,
2013-05-21 09:56:00,67.8,67.2,29.93,ENE,71,0.0,0.0,98,0.00,,,0.00,Wunderground v.1.15,2013-05-21 13:56:00,
2013-05-21 10:01:00,67.9,67.3,29.93,ENE,71,0.0,0.0,98,0.00,,,0.00,Wunderground v.1.15,2013-05-21 14:01:00,
2013-05-21 10:11:00,68.9,68.3,29.93,East,100,0.0,0.0,98,0.00,,,0.00,Wunderground v.1.15,2013-05-21 14:11:00,
2013-05-21 10:21:00,69.4,68.8,29.93,SSW,197,0.0,0.0,98,0.00,,,0.00,Wunderground v.1.15,2013-05-21 14:21:00,
2013-05-21 10:31:00,69.8,68.6,29.92,WNW,297,0.0,0.0,96,0.00,,,0.00,Wunderground v.1.15,2013-05-21 14:31:00,
2013-05-21 10:36:00,70.2,69.0,29.92,West,270,0.0,0.0,96,0.00,,,0.00,Wunderground v.1.15,2013-05-21 14:36:00,
2013-05-21 10:51:00,71.5,69.1,29.92,WNW,284,0.0,0.0,92,0.00,,,0.00,Wunderground v.1.15,2013-05-21 14:51:00,
2013-05-21 10:56:00,71.9,69.4,29.91,WNW,284,0.0,0.0,92,0.00,,,0.00,Wunderground v.1.15,2013-05-21 14:56:00,
2013-05-21 11:01:00,72.5,69.7,29.91,West,265,0.0,0.0,91,0.00,,,0.00,Wunderground v.1.15,2013-05-21 15:01:00,
2013-05-21 11:11:00,73.4,70.3,29.92,West,267,0.0,0.0,90,0.00,,,0.00,Wunderground v.1.15,2013-05-21 15:11:00,
2013-05-21 11:21:00,74.4,70.3,29.92,SW,214,0.0,0.0,87,0.00,,,0.00,Wunderground v.1.15,2013-05-21 15:21:00,
2013-05-21 11:31:00,75.4,70.9,29.91,WNW,291,0.0,0.0,86,0.00,,,0.00,Wunderground v.1.15,2013-05-21 15:31:00,
2013-05-21 11:41:00,76.4,71.2,29.91,WSW,242,0.0,0.0,84,0.00,,,0.00,Wunderground v.1.15,2013-05-21 15:41:00,
2013-05-21 11:51:00,77.2,71.6,29.91,NNW,329,0.0,0.0,83,0.00,,,0.00,Wunderground v.1.15,2013-05-21 15:51:00,
2013-05-21 12:01:00,78.4,72.1,29.91,WSW,258,0.0,0.0,81,0.00,,,0.00,Wunderground v.1.15,2013-05-21 16:01:00,
2013-05-21 12:11:00,78.9,72.6,29.91,WSW,245,0.0,0.0,81,0.00,,,0.00,Wunderground v.1.15,2013-05-21 16:11:00,
2013-05-21 12:21:00,79.7,72.6,29.91,WNW,286,0.0,0.0,79,0.00,,,0.00,Wunderground v.1.15,2013-05-21 16:21:00,
2013-05-21 12:31:00,80.5,72.2,29.90,West,280,0.0,0.0,76,0.00,,,0.00,Wunderground v.1.15,2013-05-21 16:31:00,
2013-05-21 12:41:00,81.6,71.7,29.90,West,264,0.0,0.0,72,0.00,,,0.00,Wunderground v.1.15,2013-05-21 16:41:00,
2013-05-21 12:50:00,82.1,71.3,29.90,SSW,194,1.0,1.0,70,0.00,,,0.00,Wunderground v.1.15,2013-05-21 16:50:00,
2013-05-21 12:56:00,82.4,71.2,29.90,SW,220,1.0,1.0,69,0.00,,,0.00,Wunderground v.1.15,2013-05-21 16:56:00,
2013-05-21 13:01:00,82.7,70.6,29.90,West,278,0.0,0.0,67,0.00,,,0.00,Wunderground v.1.15,2013-05-21 17:01:00,
2013-05-21 13:11:00,83.2,70.7,29.90,WNW,285,0.0,0.0,66,0.00,,,0.00,Wunderground v.1.15,2013-05-21 17:11:00,
2013-05-21 13:21:00,82.7,69.7,29.89,WNW,297,0.0,0.0,65,0.00,,,0.00,Wunderground v.1.15,2013-05-21 17:21:00,
2013-05-21 13:31:00,82.4,70.3,29.89,NW,321,0.0,0.0,67,0.00,,,0.00,Wunderground v.1.15,2013-05-21 17:31:00,
2013-05-21 13:46:00,82.7,70.2,29.88,SSW,205,0.0,0.0,66,0.00,,,0.00,Wunderground v.1.15,2013-05-21 17:46:00,
2013-05-21 13:56:00,83.6,69.7,29.88,WNW,301,0.0,0.0,63,0.00,,,0.00,Wunderground v.1.15,2013-05-21 17:56:00,
2013-05-21 14:01:00,83.8,68.9,29.88,SSW,197,0.0,8.0,61,0.00,,,0.00,Wunderground v.1.15,2013-05-21 18:01:00,
2013-05-21 14:11:00,83.9,70.9,29.87,South,191,2.0,3.0,65,0.00,,,0.00,Wunderground v.1.15,2013-05-21 18:11:00,
2013-05-21 14:21:00,84.7,70.7,29.86,SW,217,1.0,1.0,63,0.00,,,0.00,Wunderground v.1.15,2013-05-21 18:21:00,
2013-05-21 14:26:00,84.9,70.4,29.86,SW,218,0.0,1.0,62,0.00,,,0.00,Wunderground v.1.15,2013-05-21 18:26:00,
2013-05-21 14:36:00,84.7,68.8,29.85,SW,216,2.0,6.0,59,0.00,,,0.00,Wunderground v.1.15,2013-05-21 18:36:00,
2013-05-21 14:45:00,84.8,70.3,29.84,West,277,1.0,6.0,62,0.00,,,0.00,Wunderground v.1.15,2013-05-21 18:45:00,
2013-05-21 14:51:00,85.3,70.3,29.84,SW,219,1.0,1.0,61,0.00,,,0.00,Wunderground v.1.15,2013-05-21 18:51:00,
2013-05-21 14:56:00,85.5,70.5,29.84,SW,225,0.0,2.0,61,0.00,,,0.00,Wunderground v.1.15,2013-05-21 18:56:00,
2013-05-21 15:01:00,85.4,69.4,29.84,SSW,213,2.0,2.0,59,0.00,,,0.00,Wunderground v.1.15,2013-05-21 19:01:00,
2013-05-21 15:11:00,85.4,68.9,29.84,NE,36,1.0,1.0,58,0.00,,,0.00,Wunderground v.1.15,2013-05-21 19:11:00,
2013-05-21 15:21:00,85.9,70.4,29.84,WNW,294,0.0,0.0,60,0.00,,,0.00,Wunderground v.1.15,2013-05-21 19:21:00,
2013-05-21 15:31:00,86.8,70.2,29.84,SW,234,0.0,0.0,58,0.00,,,0.00,Wunderground v.1.15,2013-05-21 19:31:00,
2013-05-21 15:36:00,87.1,70.5,29.83,SW,222,0.0,0.0,58,0.00,,,0.00,Wunderground v.1.15,2013-05-21 19:36:00,
2013-05-21 15:46:00,86.3,69.8,29.83,SSW,200,2.0,3.0,58,0.00,,,0.00,Wunderground v.1.15,2013-05-21 19:46:00,
2013-05-21 15:51:00,86.2,69.7,29.82,SSW,207,2.0,2.0,58,0.00,,,0.00,Wunderground v.1.15,2013-05-21 19:51:00,
2013-05-21 16:01:00,85.9,69.4,29.82,SSW,205,1.0,1.0,58,0.00,,,0.00,Wunderground v.1.15,2013-05-21 20:01:00,
2013-05-21 16:11:00,84.9,68.5,29.82,SSW,198,1.0,1.0,58,0.00,,,0.00,Wunderground v.1.15,2013-05-21 20:11:00,
2013-05-21 16:21:00,85.0,69.1,29.81,SSW,213,1.0,1.0,59,0.00,,,0.00,Wunderground v.1.15,2013-05-21 20:21:00,
2013-05-21 16:31:00,85.2,69.3,29.81,SSW,200,4.0,4.0,59,0.00,,,0.00,Wunderground v.1.15,2013-05-21 20:31:00,
2013-05-21 16:46:00,84.4,69.0,29.81,SW,222,5.0,5.0,60,0.00,,,0.00,Wunderground v.1.15,2013-05-21 20:46:00,
2013-05-21 16:56:00,83.3,69.4,29.81,SSW,194,3.0,5.0,63,0.00,,,0.00,Wunderground v.1.15,2013-05-21 20:56:00,
2013-05-21 17:01:00,83.0,70.5,29.81,SSW,193,0.0,0.0,66,0.00,,,0.00,Wunderground v.1.15,2013-05-21 21:01:00,
2013-05-21 17:11:00,82.9,69.9,29.81,SW,233,0.0,0.0,65,0.00,,,0.00,Wunderground v.1.15,2013-05-21 21:11:00,
2013-05-21 17:21:00,83.6,69.7,29.81,SSW,200,3.0,3.0,63,0.00,,,0.00,Wunderground v.1.15,2013-05-21 21:21:00,
2013-05-21 17:31:00,84.2,69.8,29.81,NW,309,3.0,3.0,62,0.00,,,0.00,Wunderground v.1.15,2013-05-21 21:31:00,
2013-05-21 17:41:00,83.9,69.5,29.80,SSW,195,1.0,5.0,62,0.00,,,0.00,Wunderground v.1.15,2013-05-21 21:41:00,
2013-05-21 17:51:00,83.4,69.5,29.80,SSW,213,2.0,2.0,63,0.00,,,0.00,Wunderground v.1.15,2013-05-21 21:51:00,
2013-05-21 18:01:00,83.0,69.1,29.80,SSW,212,0.0,0.0,63,0.00,,,0.00,Wunderground v.1.15,2013-05-21 22:01:00,
2013-05-21 18:11:00,82.4,69.4,29.80,SSW,208,0.0,11.0,65,0.00,,,0.00,Wunderground v.1.15,2013-05-21 22:11:00,
2013-05-21 18:21:00,81.8,68.9,29.79,WSW,243,0.0,11.0,65,0.00,,,0.00,Wunderground v.1.15,2013-05-21 22:21:00,
2013-05-21 18:30:00,81.1,68.2,29.79,SSW,207,0.0,11.0,65,0.00,,,0.00,Wunderground v.1.15,2013-05-21 22:30:00,
2013-05-21 18:36:00,80.9,68.9,29.80,SSW,207,0.0,11.0,67,0.00,,,0.00,Wunderground v.1.15,2013-05-21 22:36:00,
2013-05-21 18:46:00,80.4,69.3,29.80,SSW,207,0.0,11.0,69,0.00,,,0.00,Wunderground v.1.15,2013-05-21 22:46:00,
2013-05-21 18:56:00,79.9,69.2,29.80,SSW,207,0.0,11.0,70,0.00,,,0.00,Wunderground v.1.15,2013-05-21 22:56:00,
2013-05-21 19:06:00,79.7,69.0,29.80,SSW,207,0.0,11.0,70,0.00,,,0.00,Wunderground v.1.15,2013-05-21 23:06:00,
2013-05-21 19:16:00,79.5,70.1,29.80,SSW,207,0.0,11.0,73,0.00,,,0.00,Wunderground v.1.15,2013-05-21 23:16:00,
2013-05-21 19:26:00,78.9,70.7,29.80,SSW,207,0.0,11.0,76,0.00,,,0.00,Wunderground v.1.15,2013-05-21 23:26:00,
2013-05-21 19:36:00,77.4,70.4,29.81,SSW,207,0.0,11.0,79,0.00,,,0.00,Wunderground v.1.15,2013-05-21 23:36:00,
2013-05-21 19:46:00,77.1,68.9,29.82,SSW,207,0.0,11.0,76,0.00,,,0.00,Wunderground v.1.15,2013-05-21 23:46:00,
2013-05-21 19:56:00,77.0,69.2,29.83,SSW,207,0.0,11.0,77,0.00,,,0.00,Wunderground v.1.15,2013-05-21 23:56:00,
2013-05-21 20:01:00,76.9,69.5,29.83,South,186,0.0,11.0,78,0.00,,,0.00,Wunderground v.1.15,2013-05-22 00:01:00,
2013-05-21 20:06:00,76.9,69.5,29.83,South,186,0.0,11.0,78,0.00,,,0.00,Wunderground v.1.15,2013-05-22 00:06:00,
2013-05-21 20:16:00,76.6,69.6,29.82,South,190,0.0,11.0,79,0.00,,,0.00,Wunderground v.1.15,2013-05-22 00:16:00,
2013-05-21 20:26:00,76.3,69.7,29.83,South,189,0.0,11.0,80,0.00,,,0.00,Wunderground v.1.15,2013-05-22 00:26:00,
2013-05-21 20:36:00,75.9,69.6,29.83,South,190,0.0,11.0,81,0.00,,,0.00,Wunderground v.1.15,2013-05-22 00:36:00,
2013-05-21 20:45:00,75.6,70.1,29.83,South,190,0.0,11.0,83,0.00,,,0.00,Wunderground v.1.15,2013-05-22 00:45:00,
2013-05-21 20:51:00,75.4,70.2,29.83,South,190,0.0,11.0,84,0.00,,,0.00,Wunderground v.1.15,2013-05-22 00:51:00,
2013-05-21 21:01:00,75.0,70.2,29.84,South,190,0.0,11.0,85,0.00,,,0.00,Wunderground v.1.15,2013-05-22 01:01:00,
2013-05-21 21:11:00,74.4,69.6,29.84,South,190,0.0,11.0,85,0.00,,,0.00,Wunderground v.1.15,2013-05-22 01:11:00,
2013-05-21 21:21:00,74.1,70.0,29.85,South,190,0.0,11.0,87,0.00,,,0.00,Wunderground v.1.15,2013-05-22 01:21:00,
2013-05-21 21:31:00,73.5,69.4,29.84,South,190,0.0,11.0,87,0.00,,,0.00,Wunderground v.1.15,2013-05-22 01:31:00,
2013-05-21 21:41:00,73.1,69.3,29.84,South,190,0.0,11.0,88,0.00,,,0.00,Wunderground v.1.15,2013-05-22 01:41:00,
2013-05-21 21:50:00,72.6,69.2,29.84,South,190,0.0,11.0,89,0.00,,,0.00,Wunderground v.1.15,2013-05-22 01:50:00,
2013-05-21 21:56:00,72.3,68.9,29.85,South,190,0.0,11.0,89,0.00,,,0.00,Wunderground v.1.15,2013-05-22 01:56:00,
2013-05-21 22:06:00,72.0,68.6,29.86,South,190,0.0,11.0,89,0.00,,,0.00,Wunderground v.1.15,2013-05-22 02:06:00,
2013-05-21 22:16:00,71.7,68.6,29.86,South,190,0.0,11.0,90,0.00,,,0.00,Wunderground v.1.15,2013-05-22 02:16:00,
2013-05-21 22:26:00,71.2,68.4,29.86,South,189,0.0,11.0,91,0.00,,,0.00,Wunderground v.1.15,2013-05-22 02:26:00,
2013-05-21 22:36:00,71.0,68.6,29.86,South,190,0.0,11.0,92,0.00,,,0.00,Wunderground v.1.15,2013-05-22 02:36:00,
2013-05-21 22:46:00,70.8,68.4,29.87,NNE,17,0.0,11.0,92,0.00,,,0.00,Wunderground v.1.15,2013-05-22 02:46:00,
2013-05-21 22:56:00,71.0,67.9,29.87,NNW,344,0.0,11.0,90,0.00,,,0.00,Wunderground v.1.15,2013-05-22 02:56:00,
2013-05-21 23:06:00,71.0,63.8,29.87,NNE,19,0.0,11.0,78,0.00,,,0.00,Wunderground v.1.15,2013-05-22 03:06:00,
2013-05-21 23:16:00,71.3,63.3,29.88,NNE,14,0.0,11.0,76,0.00,,,0.00,Wunderground v.1.15,2013-05-22 03:16:00,
2013-05-21 23:21:00,71.5,63.5,29.88,North,350,0.0,11.0,76,0.00,,,0.00,Wunderground v.1.15,2013-05-22 03:21:00,
2013-05-21 23:31:00,71.4,63.1,29.88,NNE,17,0.0,11.0,75,0.00,,,0.00,Wunderground v.1.15,2013-05-22 03:31:00,
2013-05-21 23:41:00,71.0,63.1,29.89,NNE,17,0.0,11.0,76,0.00,,,0.00,Wunderground v.1.15,2013-05-22 03:41:00,
2013-05-21 23:51:00,70.4,63.2,29.87,NNE,17,0.0,11.0,78,0.00,,,0.00,Wunderground v.1.15,2013-05-22 03:51:00,